Location: Blannay
(47.5285°N, 3.7814°E)
Time: 00:24:51
(UTC+00:00)

Daily predictions for brighter satellites

Satellite Brightness Start Highest point End
(mag) Time Altitude Azimuth Time Altitude Azimuth Time Altitude Azimuth
Cosmos 2219 Rocket 4.2 03:41:53 21° NNE 03:41:53 21° NNE 03:43:38 10° NNE
Cosmos 2237 Rocket 3.5 03:43:06 37° E 03:43:06 37° E 03:47:30 10° NE
BREEZE-M DEB (TANK) 4.1 03:55:50 81° W 03:56:17 87° SSW 04:01:00 10° ESE
Cosmos 2333 Rocket 3.9 04:04:35 23° N 04:04:35 23° N 04:06:47 10° NNE
Lacrosse 4 Rocket 3.6 04:04:26 25° E 04:04:26 25° E 04:07:23 10° NE
FENGYUN 3A 4.4 04:00:53 10° NNE 04:04:53 47° NE 04:04:53 47° NE
Cosmos 2360 Rocket 4.4 04:15:24 14° N 04:15:24 14° N 04:16:30 10° N
Cosmos 1464 Rocket 4.0 04:13:47 51° SSE 04:15:21 73° E 04:21:31 10° NNE
Cosmos 841 Rocket 4.1 04:16:53 52° NE 04:16:53 52° NE 04:20:56 10° NNE
Cosmos 1980 3.9 04:17:06 68° ENE 04:17:06 68° ENE 04:22:09 10° NNE
Meteor 1-21 Rocket 4.5 04:17:53 41° N 04:19:54 70° ENE 04:25:44 10° SSE
COSMOS 2428 4.0 04:25:09 29° N 04:25:09 29° N 04:28:12 10° NNE
Cosmos 1072 Rocket 4.4 04:22:08 68° S 04:23:02 89° E 04:29:26 10° N
Atlas Centaur 2 4.3 04:26:51 19° S 04:27:47 19° S 04:33:04 10° SE
ATLAS CENTAUR R/B 3.0 04:31:44 29° ENE 04:31:44 29° ENE 04:33:55 10° NE
METEOR-M 4.1 04:28:03 10° NNE 04:33:27 82° ESE 04:34:33 57° S
Cosmos 2084 Rocket 4.0 04:37:18 58° ESE 04:37:18 58° ESE 04:41:04 10° SE
Cosmos 372 Rocket 4.0 04:40:33 65° S 04:40:33 65° S 04:45:02 10° SSE
ALOS 4.0 04:36:09 10° N 04:37:53 22° N 04:37:53 22° N
USA 215 3.6 04:36:01 10° NE 04:42:12 47° NNW 04:43:15 44° NW
Cosmos 1602 Rocket 4.1 04:40:25 32° NNE 04:42:16 58° ENE 04:46:40 10° SSE
ADEOS 3.5 04:38:35 10° NNE 04:43:50 82° ESE 04:47:41 19° SSW
USA 307 3.4 04:44:42 55° SE 04:44:42 55° SE 04:48:41 10° ENE
NOSS 0 Rocket 3.9 04:45:40 60° WNW 04:45:54 61° WNW 04:52:02 10° NNE
Cosmos 1328 4.4 04:46:59 49° NE 04:47:30 53° ENE 04:51:19 10° SSE
Nadezhda 4 Rocket 3.8 04:42:18 10° N 04:48:27 82° W 04:54:34 10° S
USA 305 3.1 04:50:49 63° SE 04:50:49 63° SE 04:55:00 10° ENE
USA 308 3.1 04:53:18 63° SSE 04:53:30 64° SE 04:57:44 10° ENE
Cosmos 1400 Rocket 3.0 04:53:19 50° SSE 04:54:18 73° E 04:58:26 10° NNE
SL-4 R/B 2.1 04:55:30 64° E 04:55:30 64° E 04:59:03 10° ENE
Cosmos 1943 Rocket 3.0 04:51:10 17° NNW 04:55:29 50° ENE 05:00:59 10° SE
Cosmos 2034 Rocket 3.9 04:50:34 10° SSW 04:56:56 80° W 05:03:20 10° N
Meteor 1-16 Rocket 4.2 04:51:58 10° S 04:57:54 89° WNW 05:03:52 10° N
Cosmos 1570 Rocket 3.9 04:57:36 61° WSW 04:58:16 68° WNW 05:03:32 10° NNE
Cosmos 540 Rocket 3.7 05:01:40 47° NW 05:01:40 47° NW 05:06:05 10° NNE
CZ-2C R/B 4.5 04:57:31 10° ESE 05:02:02 29° ENE 05:06:38 10° N
SJ-12 3.8 04:57:55 10° NNE 05:02:06 89° E 05:04:12 29° SSW
USA 306 2.9 05:02:36 67° SSW 05:03:03 75° SSE 05:07:17 10° ENE
Cosmos 2298 Rocket 3.9 05:00:29 29° NNW 05:03:16 87° WSW 05:08:37 10° SSE
NOSS 3-2 (A) 3.6 05:00:28 18° SSW 05:04:48 70° SE 05:11:16 10° NE
Cosmos 1814 Rocket 3.8 05:03:50 51° WSW 05:04:57 66° WNW 05:10:05 10° NNE
Cosmos 2369 Rocket 3.5 05:00:33 10° NNW 05:05:47 38° NE 05:10:57 10° ESE
Cosmos 1125 Rocket 3.7 05:01:52 17° NNW 05:06:02 70° ENE 05:11:20 10° SSE
Envisat 4.4 05:01:26 10° NNE 05:06:13 40° E 05:10:58 10° SSE
Cosmos 1634 Rocket 4.5 05:01:14 10° S 05:07:17 60° E 05:13:22 10° NNE
CZ-4B R/B 2.8 05:07:31 10° NNE 05:11:11 71° ESE 05:14:57 10° S
COSMO-SKYMED 1 2.5 05:07:32 10° S 05:11:50 62° W 05:12:33 53° NW
CZ-4B R/B 4.1 05:08:36 10° N 05:13:01 57° WNW 05:13:34 53° WSW
PSLV R/B 4.0 05:09:47 10° SSE 05:13:54 76° ENE 05:17:58 11° N
Cosmos 2278 Rocket 3.9 05:18:36 15° SW 05:18:36 15° SW 05:19:59 10° SSW
USA 267 4.5 05:12:06 10° S 05:16:24 21° SW 05:16:24 21° SW
Cosmos 2228 4.1 05:13:26 10° SSE 05:17:28 45° E 05:21:31 10° NNE
SL-16 R/B 2.3 05:12:23 10° SSW 05:18:01 80° ESE 05:23:44 10° NNE
NOSS 3-2 (C) 4.1 05:13:03 10° SSW 05:18:31 54° ESE 05:24:45 10° NE
CZ-2C R/B 3.6 05:19:17 13° SSW 05:20:01 13° SSW 05:21:58 10° SSE
Cosmos 972 Rocket 4.3 05:16:15 10° SSW 05:22:32 90° ESE 05:28:08 10° NNE
Cosmos 2219 Rocket 3.8 05:23:37 18° NNW 05:23:37 18° NNW 05:26:41 10° N
Cosmos 2026 Rocket 4.0 05:17:47 10° N 05:24:12 90° E 05:30:36 10° S
ERS-2 2.0 05:20:55 10° S 05:24:31 62° WSW 05:25:09 51° NW
ATLAS 5 CENTAUR R/B 3.5 05:25:47 18° SSW 05:25:47 18° SSW 05:28:18 10° S
CENTAUR R/B 2.9 05:19:54 10° SSW 05:25:42 65° ESE 05:32:39 10° NE
Cosmos 2237 Rocket 2.7 05:24:59 34° W 05:26:18 38° NW 05:31:38 10° NNE
Cosmos 2208 Rocket 4.2 05:23:25 25° SW 05:26:18 50° WNW 05:31:34 10° NNE
H-2A R/B 2.6 05:24:26 10° NNE 05:28:10 87° ESE 05:31:56 10° SSW
FALCON 9 DEB 4.1 05:30:00 22° SSW 05:31:34 39° SE 05:34:32 10° ENE
Meteor PRIRODA 3.4 05:29:13 10° N 05:32:50 67° WNW 05:36:26 10° SSW
Cosmos 1606 Rocket 4.0 05:29:38 10° S 05:33:53 61° E 05:38:10 10° NNE
Cosmos 1626 Rocket 4.5 05:37:41 28° WSW 05:37:41 28° WSW 05:40:53 10° SSW
FALCON 9 DEB 3.6 05:38:25 23° SSW 05:40:02 51° SE 05:43:04 10° ENE
Lacrosse 4 Rocket 1.9 05:40:48 30° W 05:42:15 40° NW 05:46:25 10° NNE
Meteor 1-11 4.2 05:39:30 10° NNW 05:45:00 60° W 05:50:28 10° S
Cosmos 1300 2.5 05:42:00 10° SSW 05:45:47 75° W 05:49:37 10° N
Cosmos 2333 Rocket 4.0 05:46:36 13° NW 05:46:59 13° NNW 05:49:38 10° N
SAR-Lupe-4 3.9 05:44:44 10° S 05:48:09 42° W 05:50:19 20° NW
Cosmos 1315 Rocket 2.6 05:46:27 10° SSW 05:50:21 80° W 05:54:18 10° N
deb Chang Zheng 4 3.9 05:46:32 10° N 05:50:32 40° WNW 05:54:29 10° SW
Meteor 1-31 Rocket 4.4 05:50:51 10° NNW 05:52:39 18° NW 05:52:39 18° NW
Cosmos 2297 4.1 05:50:12 15° NW 05:54:40 42° WSW 06:00:01 10° S
MOS 1 Rocket 4.0 05:53:14 10° SSW 05:57:33 32° W 06:01:41 10° NNW
Cosmos 1346 Rocket 3.2 05:54:23 10° NNW 05:58:03 39° W 06:01:47 10° SSW
USA 238 DEB 3.6 05:54:00 10° SW 06:00:34 69° NW 06:07:31 10° NE
USA 238 3.6 05:54:06 10° SW 06:00:40 70° NW 06:07:37 10° NE
Cosmos 836 Rocket 4.4 05:55:27 10° SSW 06:00:41 72° WNW 06:05:57 10° NNE
Cosmos 1758 Rocket 4.1 05:58:45 10° NNW 06:02:54 38° W 06:07:00 10° SSW
FALCON 9 DEB 4.2 06:01:26 20° NW 06:03:05 31° N 06:06:11 10° ENE
Cosmos 1689 Rocket 3.2 06:04:33 10° SSW 06:06:55 22° W 06:07:23 21° W
ATLAS CENTAUR R/B 2.3 06:07:56 19° WNW 06:09:26 24° NW 06:12:30 10° NNE
Cosmos 1441 Rocket 4.0 06:05:44 10° N 06:09:37 54° ENE 06:13:26 10° SSE
BREEZE M DEB (TANK) 2.4 06:11:52 10° SW 06:14:09 62° SSE 06:19:08 10° ENE
SL-19 R/B 4.0 06:10:48 10° NNE 06:14:34 87° ESE 06:17:48 10° SSW
MOS 1-B 4.4 06:11:42 10° NNE 06:17:32 88° WNW 06:23:18 10° SSW
Cosmos 1726 Rocket 3.5 06:13:54 10° SSW 06:18:09 59° WNW 06:22:26 10° N
YAOGAN 6 3.2 06:14:57 10° N 06:18:23 36° WNW 06:21:46 10° SW
Cosmos 1892 2.6 06:14:41 10° NNW 06:18:34 78° W 06:22:24 10° S
Cosmos 1184 Rocket 4.1 06:15:53 10° N 06:19:01 42° ENE 06:22:09 10° SSE
Spot 2 3.8 06:15:10 10° N 06:19:13 73° WNW 06:23:18 10° SSW
Cosmos 2058 Rocket 3.1 06:15:44 10° S 06:20:08 90° W 06:24:38 10° N
Cosmos 1603 4.1 06:15:40 10° SSW 06:21:13 70° ESE 06:26:52 10° NNE
GEOS 3 Rocket 4.1 06:17:05 10° SSE 06:22:14 47° WSW 06:27:27 10° NW
FALCON 9 DEB 2.8 06:19:10 10° WSW 06:22:16 72° NNW 06:25:22 10° ENE
USA 215 4.0 06:18:30 10° ENE 06:24:26 39° N 06:30:24 10° WNW
USA 307 3.3 06:20:52 12° W 06:24:39 45° NNW 06:28:44 10° ENE
CZ-4B DEB 4.3 06:23:01 10° N 06:28:32 63° WNW 06:34:00 10° SSW
In-Cosmos 22 Rocket 4.2 06:23:34 10° NNW 06:28:57 59° W 06:34:10 10° S
PSLV R/B 4.4 06:25:29 10° N 06:29:13 37° WNW 06:32:58 10° SW
Cosmos 2279 Rocket 4.1 06:24:10 10° SSW 06:30:16 55° WNW 06:36:26 10° N
Cosmos 2292 Rocket 3.3 06:27:49 10° NNW 06:30:41 39° W 06:33:57 10° SSW
USA 305 3.4 06:26:57 10° W 06:30:58 43° NNW 06:35:02 10° ENE
FALCON 9 DEB 2.8 06:27:54 10° WSW 06:31:03 69° NNW 06:34:10 10° ENE
Cosmos 1408 2.5 06:28:41 10° NNW 06:32:18 74° W 06:35:53 10° S
USA 308 3.4 06:29:35 10° W 06:33:41 43° NNW 06:37:48 10° ENE
Cosmos 2098 Rocket 4.3 06:29:46 10° NNW 06:34:25 27° W 06:38:16 10° SW
Okean O Rocket 1.6 06:30:11 10° NNE 06:34:34 88° WNW 06:38:54 10° SSW
SL-4 R/B 2.4 06:31:06 10° W 06:34:51 48° N 06:38:56 10° ENE
SMAP 3.1 06:32:01 10° N 06:36:38 63° WNW 06:41:14 10° SSW
Cosmos 2263 4.3 06:32:46 10° NNW 06:38:24 66° WSW 06:44:02 10° SSE
Cosmos 1943 Rocket 3.1 06:34:08 10° NW 06:38:58 29° WSW 06:43:46 10° SSW
H-2A R/B 2.8 06:36:24 10° N 06:40:49 55° WNW 06:45:13 10° SSW
Iridium 4 Rocket 4.1 06:35:03 10° S 06:40:52 77° E 06:46:47 10° N
CZ-2C R/B 3.0 06:37:06 10° S 06:42:07 45° W 06:47:18 10° NNW
USA 306 3.5 06:39:17 10° W 06:43:17 40° NNW 06:47:19 10° ENE
Cosmos 1939 Rocket 2.9 06:39:36 10° NNE 06:43:33 82° ESE 06:47:23 10° S
Envisat 3.7 06:40:42 10° N 06:45:07 31° WNW 06:49:31 10° SW
